Weather in Verhnetulomsky

Russia / Murmansk Oblast     68°36′26″N   31°47′58″E
temp.,
°C
wind,
m/s
gust,
m/s
humid.,
%
clouds,
%
prec.,
mm/h
press.,
hPa
HPBL,
m
25 july, sun
sun2500:00+8nw5128994 0.4 1008839
03:00+7nw51184100 0.4 10101105
06:00+8nw61077100 0.1 10101071
09:00+9nw5971100 0.1 10111328
12:00+9wnw5966100 0.1 10131343
15:00+11nw485846 0.1 10131216
18:00+14nw465436 0.0 10121072
21:00+11n2569100 0.0 1013210
26 july, mon
mon2600:00+8nw2384100 0.2 1015125
03:00+7nw378352 0.3 1017583
06:00+7nw367926 0.0 1018637
09:00+9nw4663100 0.0 10191162
12:00+12nnw45537 0.0 10201208
15:00+14nw354812 0.0 10201225
18:00+15nnw34485 0.0 10201260
21:00+12n11665 0.0 102110
27 july, tue
tue2700:00+8se01835 0.0 102110
03:00+6ese01885 0.0 102216
06:00+9ese007523 0.0 102297
09:00+14wsw015731 0.0 1020435
12:00+17wnw125294 0.0 1019730
15:00+17wsw0156100 0.0 1018395
18:00+17ese116679 0.0 101620
21:00+16ne1173100 0.0 101414
28 july, wed
wed2800:00+14ene007879 0.0 101311
03:00+10n119214 0.0 101312
06:00+12nne248175 0.0 1013267
09:00+12nne236827 0.0 1012559
12:00+16n23565 0.0 10111012
15:00+17nnw23486 0.0 10091265
18:00+15nne54562 0.0 1009944
21:00+11ne35675 0.0 1008469
29 july, thu
thu2900:00+6e11859 0.0 100829
03:00+5ne11921 0.0 100625
06:00+7nne11805 0.0 1005190
09:00+10n226593 0.0 1003921
12:00+10n226298 0.0 10021026
15:00+10nnw226399 0.0 10011042
18:00+11nnw225959 0.0 1000986
21:00+9n236548 0.0 999193